<?xml version="1.0" encoding="UTF-8"?>
<gpx
version="1.1"
creator="Kashmir3D 9.350 - http://www.kashmir3d.com"
xmlns:xsi="http://www.w3.org/2001/XMLSchema-instance"
xmlns="http://www.topografix.com/GPX/1/1"
xmlns:kashmir3d="http://www.kashmir3d.com/namespace/kashmir3d"
xsi:schemaLocation="http://www.topografix.com/GPX/1/1 http://www.topografix.com/GPX/1/1/gpx.xsd
	http://www.kashmir3d.com/namespace/kashmir3d http://www.kashmir3d.com/namespace/kashmir3d.xsd">
<trk>
 <name>PILLAR_ROCK.KML(KAZABUKIIWA_PILLARROCK.KML(ピラーロック・風吹岩))</name>
 <number>1</number>
 <extensions>
 <kashmir3d:line_color>0000ff</kashmir3d:line_color>
 <kashmir3d:line_size>3</kashmir3d:line_size>
 <kashmir3d:line_style>1</kashmir3d:line_style>
 <kashmir3d:icon>901001</kashmir3d:icon>
 </extensions>
<trkseg>
<trkpt lat="34.744672" lon="135.289547">
 <ele>156.7</ele>
 <time>2020-03-26T13:45:43Z</time>
</trkpt>
<trkpt lat="34.744835" lon="135.289461">
 <ele>157.9</ele>
 <time>2020-03-26T13:45:44Z</time>
</trkpt>
<trkpt lat="34.744930" lon="135.289396">
 <ele>161</ele>
 <time>2020-03-26T13:45:44Z</time>
</trkpt>
<trkpt lat="34.745041" lon="135.289332">
 <ele>161.9</ele>
 <time>2020-03-26T13:45:44Z</time>
</trkpt>
<trkpt lat="34.745127" lon="135.289289">
 <ele>163.6</ele>
 <time>2020-03-26T13:45:44Z</time>
</trkpt>
<trkpt lat="34.745221" lon="135.289289">
 <ele>171.4</ele>
 <time>2020-03-26T13:45:44Z</time>
</trkpt>
<trkpt lat="34.745333" lon="135.289246">
 <ele>172.3</ele>
 <time>2020-03-26T13:45:44Z</time>
</trkpt>
<trkpt lat="34.745427" lon="135.289193">
 <ele>177.6</ele>
 <time>2020-03-26T13:45:44Z</time>
</trkpt>
<trkpt lat="34.745513" lon="135.289193">
 <ele>178</ele>
 <time>2020-03-26T13:45:44Z</time>
</trkpt>
<trkpt lat="34.745590" lon="135.289096">
 <ele>177.1</ele>
 <time>2020-03-26T13:45:44Z</time>
</trkpt>
<trkpt lat="34.745659" lon="135.288978">
 <ele>177.6</ele>
 <time>2020-03-26T13:45:45Z</time>
</trkpt>
<trkpt lat="34.745754" lon="135.288828">
 <ele>178.6</ele>
 <time>2020-03-26T13:45:45Z</time>
</trkpt>
<trkpt lat="34.745857" lon="135.288645">
 <ele>186.8</ele>
 <time>2020-03-26T13:45:45Z</time>
</trkpt>
<trkpt lat="34.745934" lon="135.288549">
 <ele>192.5</ele>
 <time>2020-03-26T13:45:45Z</time>
</trkpt>
<trkpt lat="34.745882" lon="135.288452">
 <ele>195.7</ele>
 <time>2020-03-26T13:45:45Z</time>
</trkpt>
<trkpt lat="34.745865" lon="135.288356">
 <ele>210.1</ele>
 <time>2020-03-26T13:45:45Z</time>
</trkpt>
<trkpt lat="34.745942" lon="135.288206">
 <ele>216.5</ele>
 <time>2020-03-26T13:45:45Z</time>
</trkpt>
<trkpt lat="34.746020" lon="135.288088">
 <ele>225.2</ele>
 <time>2020-03-26T13:45:45Z</time>
</trkpt>
<trkpt lat="34.746063" lon="135.287937">
 <ele>232</ele>
 <time>2020-03-26T13:45:45Z</time>
</trkpt>
<trkpt lat="34.746080" lon="135.287798">
 <ele>235</ele>
 <time>2020-03-26T13:45:45Z</time>
</trkpt>
<trkpt lat="34.746105" lon="135.287658">
 <ele>243.8</ele>
 <time>2020-03-26T13:45:46Z</time>
</trkpt>
<trkpt lat="34.746140" lon="135.287616">
 <ele>246.2</ele>
 <time>2020-03-26T13:45:46Z</time>
</trkpt>
<trkpt lat="34.746208" lon="135.287519">
 <ele>255.5</ele>
 <time>2020-03-26T13:45:46Z</time>
</trkpt>
<trkpt lat="34.746303" lon="135.287390">
 <ele>260.2</ele>
 <time>2020-03-26T13:45:46Z</time>
</trkpt>
<trkpt lat="34.746320" lon="135.287315">
 <ele>260.4</ele>
 <time>2020-03-26T13:45:46Z</time>
</trkpt>
<trkpt lat="34.746337" lon="135.287208">
 <ele>259.6</ele>
 <time>2020-03-26T13:45:46Z</time>
</trkpt>
<trkpt lat="34.746372" lon="135.287111">
 <ele>262.1</ele>
 <time>2020-03-26T13:45:46Z</time>
</trkpt>
<trkpt lat="34.746414" lon="135.286940">
 <ele>269.5</ele>
 <time>2020-03-26T13:45:46Z</time>
</trkpt>
<trkpt lat="34.746423" lon="135.286811">
 <ele>275.9</ele>
 <time>2020-03-26T13:45:46Z</time>
</trkpt>
<trkpt lat="34.746483" lon="135.286736">
 <ele>281.6</ele>
 <time>2020-03-26T13:45:47Z</time>
</trkpt>
<trkpt lat="34.746483" lon="135.286650">
 <ele>285.7</ele>
 <time>2020-03-26T13:45:47Z</time>
</trkpt>
<trkpt lat="34.746475" lon="135.286564">
 <ele>287.8</ele>
 <time>2020-03-26T13:45:47Z</time>
</trkpt>
<trkpt lat="34.746500" lon="135.286489">
 <ele>290.6</ele>
 <time>2020-03-26T13:45:47Z</time>
</trkpt>
<trkpt lat="34.746500" lon="135.286414">
 <ele>292.4</ele>
 <time>2020-03-26T13:45:47Z</time>
</trkpt>
<trkpt lat="34.746500" lon="135.286296">
 <ele>295.3</ele>
 <time>2020-03-26T13:45:47Z</time>
</trkpt>
<trkpt lat="34.746414" lon="135.286178">
 <ele>301.8</ele>
 <time>2020-03-26T13:45:47Z</time>
</trkpt>
<trkpt lat="34.746354" lon="135.286081">
 <ele>301.3</ele>
 <time>2020-03-26T13:45:47Z</time>
</trkpt>
<trkpt lat="34.746311" lon="135.285899">
 <ele>311.2</ele>
 <time>2020-03-26T13:45:47Z</time>
</trkpt>
<trkpt lat="34.746320" lon="135.285759">
 <ele>317.1</ele>
 <time>2020-03-26T13:45:47Z</time>
</trkpt>
<trkpt lat="34.746337" lon="135.285609">
 <ele>323.3</ele>
 <time>2020-03-26T13:45:48Z</time>
</trkpt>
<trkpt lat="34.746389" lon="135.285427">
 <ele>325</ele>
 <time>2020-03-26T13:45:48Z</time>
</trkpt>
<trkpt lat="34.746440" lon="135.285341">
 <ele>326.2</ele>
 <time>2020-03-26T13:45:48Z</time>
</trkpt>
<trkpt lat="34.746483" lon="135.285202">
 <ele>329</ele>
 <time>2020-03-26T13:45:48Z</time>
</trkpt>
<trkpt lat="34.746552" lon="135.285116">
 <ele>332.9</ele>
 <time>2020-03-26T13:45:48Z</time>
</trkpt>
<trkpt lat="34.746612" lon="135.285073">
 <ele>334.1</ele>
 <time>2020-03-26T13:45:48Z</time>
</trkpt>
<trkpt lat="34.746698" lon="135.285148">
 <ele>335.8</ele>
 <time>2020-03-26T13:45:48Z</time>
</trkpt>
<trkpt lat="34.746792" lon="135.285244">
 <ele>334.3</ele>
 <time>2020-03-26T13:45:48Z</time>
</trkpt>
<trkpt lat="34.746998" lon="135.285309">
 <ele>334.2</ele>
 <time>2020-03-26T13:45:48Z</time>
</trkpt>
<trkpt lat="34.747135" lon="135.285298">
 <ele>337.2</ele>
 <time>2020-03-26T13:45:49Z</time>
</trkpt>
<trkpt lat="34.747281" lon="135.285309">
 <ele>337.9</ele>
 <time>2020-03-26T13:45:49Z</time>
</trkpt>
<trkpt lat="34.747376" lon="135.285287">
 <ele>343.8</ele>
 <time>2020-03-26T13:45:49Z</time>
</trkpt>
<trkpt lat="34.747393" lon="135.285180">
 <ele>345.6</ele>
 <time>2020-03-26T13:45:49Z</time>
</trkpt>
<trkpt lat="34.747367" lon="135.285051">
 <ele>351.9</ele>
 <time>2020-03-26T13:45:49Z</time>
</trkpt>
<trkpt lat="34.747453" lon="135.284998">
 <ele>359.6</ele>
 <time>2020-03-26T13:45:49Z</time>
</trkpt>
<trkpt lat="34.747556" lon="135.284869">
 <ele>364.4</ele>
 <time>2020-03-26T13:45:49Z</time>
</trkpt>
<trkpt lat="34.747685" lon="135.284719">
 <ele>364.7</ele>
 <time>2020-03-26T13:45:49Z</time>
</trkpt>
<trkpt lat="34.747779" lon="135.284569">
 <ele>364.2</ele>
 <time>2020-03-26T13:45:49Z</time>
</trkpt>
<trkpt lat="34.747813" lon="135.284451">
 <ele>366.2</ele>
 <time>2020-03-26T13:45:49Z</time>
</trkpt>
<trkpt lat="34.747848" lon="135.284332">
 <ele>367.7</ele>
 <time>2020-03-26T13:45:50Z</time>
</trkpt>
<trkpt lat="34.747848" lon="135.284236">
 <ele>367.8</ele>
 <time>2020-03-26T13:45:50Z</time>
</trkpt>
<trkpt lat="34.747874" lon="135.284129">
 <ele>371.3</ele>
 <time>2020-03-26T13:45:50Z</time>
</trkpt>
<trkpt lat="34.747959" lon="135.284000">
 <ele>375</ele>
 <time>2020-03-26T13:45:50Z</time>
</trkpt>
<trkpt lat="34.748054" lon="135.283914">
 <ele>377.8</ele>
 <time>2020-03-26T13:45:50Z</time>
</trkpt>
<trkpt lat="34.748131" lon="135.283818">
 <ele>379.7</ele>
 <time>2020-03-26T13:45:50Z</time>
</trkpt>
<trkpt lat="34.748200" lon="135.283710">
 <ele>381.9</ele>
 <time>2020-03-26T13:45:50Z</time>
</trkpt>
<trkpt lat="34.748260" lon="135.283571">
 <ele>382.9</ele>
 <time>2020-03-26T13:45:50Z</time>
</trkpt>
<trkpt lat="34.748303" lon="135.283442">
 <ele>385.3</ele>
 <time>2020-03-26T13:45:50Z</time>
</trkpt>
<trkpt lat="34.748354" lon="135.283335">
 <ele>388</ele>
 <time>2020-03-26T13:45:51Z</time>
</trkpt>
<trkpt lat="34.748320" lon="135.283056">
 <ele>393.7</ele>
 <time>2020-03-26T13:45:51Z</time>
</trkpt>
<trkpt lat="34.748260" lon="135.282745">
 <ele>394.5</ele>
 <time>2020-03-26T13:45:51Z</time>
</trkpt>
<trkpt lat="34.748165" lon="135.282498">
 <ele>385.9</ele>
 <time>2020-03-26T13:45:51Z</time>
</trkpt>
<trkpt lat="34.747985" lon="135.282165">
 <ele>383.6</ele>
 <time>2020-03-26T13:45:51Z</time>
</trkpt>
<trkpt lat="34.747839" lon="135.282026">
 <ele>391.6</ele>
 <time>2020-03-26T13:45:51Z</time>
</trkpt>
<trkpt lat="34.747985" lon="135.282165">
 <ele>383.6</ele>
 <time>2020-03-26T13:45:51Z</time>
</trkpt>
<trkpt lat="34.748165" lon="135.282498">
 <ele>385.9</ele>
 <time>2020-03-26T13:45:51Z</time>
</trkpt>
<trkpt lat="34.748260" lon="135.282745">
 <ele>394.5</ele>
 <time>2020-03-26T13:45:51Z</time>
</trkpt>
<trkpt lat="34.748320" lon="135.283056">
 <ele>393.7</ele>
 <time>2020-03-26T13:45:51Z</time>
</trkpt>
<trkpt lat="34.748354" lon="135.283335">
 <ele>388</ele>
 <time>2020-03-26T13:45:52Z</time>
</trkpt>
<trkpt lat="34.748303" lon="135.283442">
 <ele>385.3</ele>
 <time>2020-03-26T13:45:52Z</time>
</trkpt>
<trkpt lat="34.748260" lon="135.283571">
 <ele>382.9</ele>
 <time>2020-03-26T13:45:52Z</time>
</trkpt>
<trkpt lat="34.748200" lon="135.283710">
 <ele>381.9</ele>
 <time>2020-03-26T13:45:52Z</time>
</trkpt>
<trkpt lat="34.748131" lon="135.283818">
 <ele>379.7</ele>
 <time>2020-03-26T13:45:52Z</time>
</trkpt>
<trkpt lat="34.748054" lon="135.283914">
 <ele>377.8</ele>
 <time>2020-03-26T13:45:52Z</time>
</trkpt>
<trkpt lat="34.747959" lon="135.284000">
 <ele>375</ele>
 <time>2020-03-26T13:45:52Z</time>
</trkpt>
<trkpt lat="34.747874" lon="135.284129">
 <ele>371.3</ele>
 <time>2020-03-26T13:45:52Z</time>
</trkpt>
<trkpt lat="34.747848" lon="135.284236">
 <ele>367.8</ele>
 <time>2020-03-26T13:45:52Z</time>
</trkpt>
<trkpt lat="34.747848" lon="135.284332">
 <ele>367.7</ele>
 <time>2020-03-26T13:45:52Z</time>
</trkpt>
<trkpt lat="34.747813" lon="135.284451">
 <ele>366.2</ele>
 <time>2020-03-26T13:45:53Z</time>
</trkpt>
<trkpt lat="34.747779" lon="135.284569">
 <ele>364.2</ele>
 <time>2020-03-26T13:45:53Z</time>
</trkpt>
<trkpt lat="34.747685" lon="135.284719">
 <ele>364.7</ele>
 <time>2020-03-26T13:45:53Z</time>
</trkpt>
<trkpt lat="34.747556" lon="135.284869">
 <ele>364.4</ele>
 <time>2020-03-26T13:45:53Z</time>
</trkpt>
<trkpt lat="34.747453" lon="135.284998">
 <ele>359.6</ele>
 <time>2020-03-26T13:45:53Z</time>
</trkpt>
<trkpt lat="34.747367" lon="135.285051">
 <ele>351.9</ele>
 <time>2020-03-26T13:45:53Z</time>
</trkpt>
<trkpt lat="34.747393" lon="135.285180">
 <ele>345.6</ele>
 <time>2020-03-26T13:45:53Z</time>
</trkpt>
<trkpt lat="34.747376" lon="135.285287">
 <ele>343.8</ele>
 <time>2020-03-26T13:45:53Z</time>
</trkpt>
<trkpt lat="34.747281" lon="135.285309">
 <ele>337.9</ele>
 <time>2020-03-26T13:45:53Z</time>
</trkpt>
<trkpt lat="34.747135" lon="135.285298">
 <ele>337.2</ele>
 <time>2020-03-26T13:45:54Z</time>
</trkpt>
<trkpt lat="34.746998" lon="135.285309">
 <ele>334.2</ele>
 <time>2020-03-26T13:45:54Z</time>
</trkpt>
<trkpt lat="34.746792" lon="135.285244">
 <ele>334.3</ele>
 <time>2020-03-26T13:45:54Z</time>
</trkpt>
<trkpt lat="34.746698" lon="135.285148">
 <ele>335.8</ele>
 <time>2020-03-26T13:45:54Z</time>
</trkpt>
<trkpt lat="34.746612" lon="135.285073">
 <ele>334.1</ele>
 <time>2020-03-26T13:45:54Z</time>
</trkpt>
<trkpt lat="34.746552" lon="135.285116">
 <ele>332.9</ele>
 <time>2020-03-26T13:45:54Z</time>
</trkpt>
<trkpt lat="34.746483" lon="135.285202">
 <ele>329</ele>
 <time>2020-03-26T13:45:54Z</time>
</trkpt>
<trkpt lat="34.746440" lon="135.285341">
 <ele>326.2</ele>
 <time>2020-03-26T13:45:54Z</time>
</trkpt>
<trkpt lat="34.746389" lon="135.285427">
 <ele>325</ele>
 <time>2020-03-26T13:45:54Z</time>
</trkpt>
<trkpt lat="34.746337" lon="135.285609">
 <ele>323.3</ele>
 <time>2020-03-26T13:45:54Z</time>
</trkpt>
<trkpt lat="34.746320" lon="135.285759">
 <ele>317.1</ele>
 <time>2020-03-26T13:45:55Z</time>
</trkpt>
<trkpt lat="34.746311" lon="135.285899">
 <ele>311.2</ele>
 <time>2020-03-26T13:45:55Z</time>
</trkpt>
<trkpt lat="34.746354" lon="135.286081">
 <ele>301.3</ele>
 <time>2020-03-26T13:45:55Z</time>
</trkpt>
<trkpt lat="34.746414" lon="135.286178">
 <ele>301.8</ele>
 <time>2020-03-26T13:45:55Z</time>
</trkpt>
<trkpt lat="34.746500" lon="135.286296">
 <ele>295.3</ele>
 <time>2020-03-26T13:45:55Z</time>
</trkpt>
<trkpt lat="34.746500" lon="135.286414">
 <ele>292.4</ele>
 <time>2020-03-26T13:45:55Z</time>
</trkpt>
<trkpt lat="34.746500" lon="135.286489">
 <ele>290.6</ele>
 <time>2020-03-26T13:45:55Z</time>
</trkpt>
<trkpt lat="34.746475" lon="135.286564">
 <ele>287.8</ele>
 <time>2020-03-26T13:45:55Z</time>
</trkpt>
<trkpt lat="34.746483" lon="135.286650">
 <ele>285.7</ele>
 <time>2020-03-26T13:45:55Z</time>
</trkpt>
<trkpt lat="34.746483" lon="135.286736">
 <ele>281.6</ele>
 <time>2020-03-26T13:45:56Z</time>
</trkpt>
<trkpt lat="34.746423" lon="135.286811">
 <ele>275.9</ele>
 <time>2020-03-26T13:45:56Z</time>
</trkpt>
<trkpt lat="34.746414" lon="135.286940">
 <ele>269.5</ele>
 <time>2020-03-26T13:45:56Z</time>
</trkpt>
<trkpt lat="34.746372" lon="135.287111">
 <ele>262.1</ele>
 <time>2020-03-26T13:45:56Z</time>
</trkpt>
<trkpt lat="34.746337" lon="135.287208">
 <ele>259.6</ele>
 <time>2020-03-26T13:45:56Z</time>
</trkpt>
<trkpt lat="34.746320" lon="135.287315">
 <ele>260.4</ele>
 <time>2020-03-26T13:45:56Z</time>
</trkpt>
<trkpt lat="34.746303" lon="135.287390">
 <ele>260.2</ele>
 <time>2020-03-26T13:45:56Z</time>
</trkpt>
<trkpt lat="34.746208" lon="135.287519">
 <ele>255.5</ele>
 <time>2020-03-26T13:45:56Z</time>
</trkpt>
<trkpt lat="34.746140" lon="135.287616">
 <ele>246.2</ele>
 <time>2020-03-26T13:45:56Z</time>
</trkpt>
<trkpt lat="34.746105" lon="135.287658">
 <ele>243.8</ele>
 <time>2020-03-26T13:45:56Z</time>
</trkpt>
<trkpt lat="34.746080" lon="135.287798">
 <ele>235</ele>
 <time>2020-03-26T13:45:57Z</time>
</trkpt>
<trkpt lat="34.746063" lon="135.287937">
 <ele>232</ele>
 <time>2020-03-26T13:45:57Z</time>
</trkpt>
<trkpt lat="34.746020" lon="135.288088">
 <ele>225.2</ele>
 <time>2020-03-26T13:45:57Z</time>
</trkpt>
<trkpt lat="34.745942" lon="135.288206">
 <ele>216.5</ele>
 <time>2020-03-26T13:45:57Z</time>
</trkpt>
<trkpt lat="34.745865" lon="135.288356">
 <ele>210.1</ele>
 <time>2020-03-26T13:45:57Z</time>
</trkpt>
<trkpt lat="34.745882" lon="135.288452">
 <ele>195.7</ele>
 <time>2020-03-26T13:45:57Z</time>
</trkpt>
<trkpt lat="34.745934" lon="135.288549">
 <ele>192.5</ele>
 <time>2020-03-26T13:45:57Z</time>
</trkpt>
<trkpt lat="34.745857" lon="135.288645">
 <ele>186.8</ele>
 <time>2020-03-26T13:45:57Z</time>
</trkpt>
<trkpt lat="34.745754" lon="135.288828">
 <ele>178.6</ele>
 <time>2020-03-26T13:45:57Z</time>
</trkpt>
<trkpt lat="34.745659" lon="135.288978">
 <ele>177.6</ele>
 <time>2020-03-26T13:45:57Z</time>
</trkpt>
<trkpt lat="34.745590" lon="135.289096">
 <ele>177.1</ele>
 <time>2020-03-26T13:45:58Z</time>
</trkpt>
<trkpt lat="34.745513" lon="135.289193">
 <ele>178</ele>
 <time>2020-03-26T13:45:58Z</time>
</trkpt>
<trkpt lat="34.745427" lon="135.289193">
 <ele>177.6</ele>
 <time>2020-03-26T13:45:58Z</time>
</trkpt>
<trkpt lat="34.745333" lon="135.289246">
 <ele>172.3</ele>
 <time>2020-03-26T13:45:58Z</time>
</trkpt>
<trkpt lat="34.745221" lon="135.289289">
 <ele>171.4</ele>
 <time>2020-03-26T13:45:58Z</time>
</trkpt>
<trkpt lat="34.745127" lon="135.289289">
 <ele>163.6</ele>
 <time>2020-03-26T13:45:58Z</time>
</trkpt>
<trkpt lat="34.745041" lon="135.289332">
 <ele>161.9</ele>
 <time>2020-03-26T13:45:58Z</time>
</trkpt>
<trkpt lat="34.744930" lon="135.289396">
 <ele>161</ele>
 <time>2020-03-26T13:45:58Z</time>
</trkpt>
<trkpt lat="34.744835" lon="135.289461">
 <ele>157.9</ele>
 <time>2020-03-26T13:45:58Z</time>
</trkpt>
<trkpt lat="34.744672" lon="135.289547">
 <ele>156.7</ele>
 <time>2020-03-26T13:45:59Z</time>
</trkpt>
</trkseg>
</trk>
</gpx>

